This is the latest recevied weather packets stored in our database for station/object W8CWV-13. If no packets are shown the sender has not sent any weather packets the latest 10 day(s).
| Time | Temp. | Humidity | Pressure | Rain* | Wind** | Luminosity | Snow |
|---|---|---|---|---|---|---|---|
| 1778217331 | 11.67° C | 100% | 1023.3 hPa | - | - | - | - |
| 1778216758 | 12.22° C | 100% | 1023.1 hPa | - | - | - | - |
| 1778216181 | 12.22° C | 100% | 1023 hPa | - | - | - | - |
| 1778215608 | 12.78° C | 100% | 1022.9 hPa | - | - | - | - |
| 1778215037 | 12.78° C | 100% | 1022.7 hPa | - | - | - | - |
| 1778214460 | 12.78° C | 100% | 1022.5 hPa | - | - | - | - |
| 1778213895 | 12.78° C | 100% | 1022.3 hPa | - | - | - | - |
| 1778213323 | 12.78° C | 100% | 1022.2 hPa | - | - | - | - |
| 1778212753 | 12.22° C | 100% | 1022 hPa | - | - | - | - |
| 1778212174 | 12.22° C | 100% | 1022 hPa | - | - | - | - |
| 1778211603 | 11.67° C | 100% | 1021.9 hPa | - | - | - | - |
| 1778211030 | 12.22° C | 100% | 1021.8 hPa | - | - | - | - |
| 1778210459 | 12.78° C | 100% | 1021.6 hPa | - | - | - | - |
| 1778209887 | 12.78° C | 100% | 1021.7 hPa | - | - | - | - |
| 1778209315 | 13.33° C | 100% | 1021.6 hPa | - | - | - | - |
| 1778208740 | 13.89° C | 100% | 1021.4 hPa | - | - | - | - |
| 1778208168 | 13.33° C | 100% | 1021.4 hPa | - | - | - | - |
| 1778207595 | 13.33° C | 100% | 1021.5 hPa | - | - | - | - |
| 1778207021 | 13.89° C | 100% | 1021.3 hPa | - | - | - | - |
| 1778206450 | 13.89° C | 100% | 1021.1 hPa | - | - | - | - |
| 1778205879 | 13.89° C | 100% | 1020.9 hPa | - | - | - | - |
| 1778205305 | 13.33° C | 100% | 1021 hPa | - | - | - | - |
| 1778204728 | 13.89° C | 100% | 1020.9 hPa | - | - | - | - |
| 1778204159 | 13.33° C | 100% | 1021 hPa | - | - | - | - |
| 1778203584 | 14.44° C | 100% | 1020.8 hPa | - | - | - | - |
* Rain since midnight (hover to see other rain measurements)
** Current wind speed in m/s (hover to see current wind gust speed)